Showing default

KAZSTSAT, 43783

Orbit data source: Space-Track

KAZSTSAT, 43783 is a payload satellite owned by Ghalam LLP (KZ) in SSO that was launched on Mon, 03 Dec 2018 UTC via an FALCON 9 launch vehicle from the Air Force Western Test Range (AFWTR). Payload-class satellites include a variety of spacecraft equipped with specific instruments for various scientific and technological missions. These include communications satellites like Starlink; space stations such as the ISS; scientific satellites like the Hubble; Earth observation satellites from companies like Planet Labs, Umbra, and HawkEye 360; GPS; miniature CubeSats for education and research; and military/defense satellites.

Loading next visibility...
Identifier
43783, 2018-099AB
Orbit
SSO
Last TLE update
6 hours ago
Origin
Manufacturer
SSTL (Astrium)
Mission
Operational Commercial Science
Bus & Motor
SSTL-X50, AOCS
Mass
110 kg wet, ~100 kg dry
Launch date (UTC)
2018-12-03 (7 years ago)
Launch vehicle
FALCON 9
Launch site
Air Force Western Test Range (AFWTR)
Object type
Payload
Rocket body
Debris
Shape & HBR
Box, 0.5 m
Radar Cross Section
0.375 m², Medium (>0.1 m² and < 1m²)

Expand to show TLE details & history

TLE from 6 hours ago
0 KAZSTSAT
1 43783U 18099AB  25182.12315897  .00001113  00000-0  97091-4 0  9992
2 43783  97.4725 224.2409 0008638 137.7857 222.4033 14.98749567358706
Epoch: 2025-07-01T02:57Z
TLE epoch observation values (Epoch: 2025-07-01T02:57:20.935Z)
Latitude
0.00002°
Longitude
-99.51946°
Altitude
578.254 km
Speed
7.569 km/s
True Right ascension
14h 56m 57s
True Declination
0° 00' 00"
Sunlit
Object was in full shadow at epoch
Visualization orbit readout
Latitude
-12.45906°
Longitude
-97.61413°
Altitude
581.423 km
Speed
7.566 km/s
Apparent Right ascension
12h 38m 49s
Apparent Declination
-34° 01' 03"
Sunlit
Object is in full shadow
Visualization observer readout
Local Sidereal Time
20:56:49
Azimuth
259.401° W
Elevation
-45.978°
Doppler factor
1
Orbital elements
Apogee altitude
573.756 km
Perigee altitude
561.756 km
Semi-major axis
6,945.893 km
Eccentricity
0.00086
Inclination
97.4725°
RAAN
224.2409°
Arg. of periapsis
137.7857°
True anomaly
Unknown
Mean anomaly
222.4033°
Eccentric anomaly
Unknown
Mean motion
3.74931 °/min
Orbital period
96.02 mins
BSTAR
0.000097091
Loading maneuver chart data...
Loading SW <> Apogee altitude chart data...
Loading historical data...
Loading historical data...
Loading historical data...
Loading historical data...
Loading historical data...
Loading historical data...
Loading historical data...

KAZSTSAT Visibility forecast

Observer location: undefined°, undefined°

Span
Click to sort rows by Start time (UTC) header in descending order
Start Az.
Max El. time (UTC)
Max El. Az.
Max El.
End time (UTC)
End Az.
5 mins2025-07-01 14:45:34.158Z52.871° ENE2025-07-01 14:47:34.158Z85.203° E17.492°2025-07-01 14:50:34.158Z136.257° SSE
5 mins2025-07-01 16:21:34.158Z329.395° NNW2025-07-01 16:23:34.158Z277.415° WNW26.506°2025-07-01 16:26:34.158Z227.993° WSW
6 mins2025-07-02 03:07:34.158Z186.877° SSW2025-07-02 03:09:34.158Z228.704° WSW38.714°2025-07-02 03:13:34.158Z338.171° N
|